Time,TemperatureF,DewpointF,PressureIn,WindDirection,WindDirectionDegrees,WindSpeedMPH,WindSpeedGustMPH,Humidity,HourlyPrecipIn,Conditions,Clouds,dailyrainin,SoftwareType,DateUTC
2013-02-24 00:00:00,26.9,16.4,29.90,West,269,3.9,6.5,64,0.00,,,4.21,WUHU216DAVISWMX,2013-02-24 05:00:00,
2013-02-24 00:05:00,27.0,16.5,29.90,West,269,2.6,6.5,64,0.00,,,4.21,WUHU216DAVISWMX,2013-02-24 05:05:00,
2013-02-24 00:10:00,27.1,16.6,29.90,West,271,2.6,7.8,64,0.00,,,4.21,WUHU216DAVISWMX,2013-02-24 05:10:00,
2013-02-24 00:15:00,27.2,16.7,29.90,West,270,6.5,9.1,64,0.00,,,4.21,WUHU216DAVISWMX,2013-02-24 05:15:00,
2013-02-24 00:20:00,27.2,17.0,29.90,West,267,5.2,9.1,65,0.00,,,4.21,WUHU216DAVISWMX,2013-02-24 05:20:00,
2013-02-24 00:25:00,27.2,17.0,29.90,West,264,6.5,10.4,65,0.00,,,4.21,WUHU216DAVISWMX,2013-02-24 05:25:00,
2013-02-24 00:30:00,27.3,17.1,29.90,West,262,7.8,10.4,65,0.00,,,4.21,WUHU216DAVISWMX,2013-02-24 05:30:00,
2013-02-24 00:35:00,27.3,17.1,29.91,West,264,2.6,10.4,65,0.00,,,4.21,WUHU216DAVISWMX,2013-02-24 05:35:00,
2013-02-24 00:40:00,27.3,17.1,29.91,West,277,5.2,7.8,65,0.00,,,4.21,WUHU216DAVISWMX,2013-02-24 05:40:00,
2013-02-24 00:45:00,27.3,17.1,29.91,West,279,9.1,9.1,65,0.00,,,4.21,WUHU216DAVISWMX,2013-02-24 05:45:00,
2013-02-24 00:50:00,27.3,17.1,29.91,West,273,3.9,11.7,65,0.00,,,4.21,WUHU216DAVISWMX,2013-02-24 05:50:00,
2013-02-24 00:55:00,27.2,17.0,29.91,West,266,5.2,11.7,65,0.00,,,4.21,WUHU216DAVISWMX,2013-02-24 05:55:00,
2013-02-24 01:00:00,27.1,17.3,29.92,West,265,3.9,7.8,66,0.00,,,4.21,WUHU216DAVISWMX,2013-02-24 06:00:00,
2013-02-24 01:05:00,27.0,16.9,29.91,West,267,1.3,5.2,65,0.00,,,4.21,WUHU216DAVISWMX,2013-02-24 06:05:00,
2013-02-24 01:10:00,26.9,17.1,29.91,West,267,5.2,6.5,66,0.00,,,4.21,WUHU216DAVISWMX,2013-02-24 06:10:00,
2013-02-24 01:15:00,26.8,17.0,29.91,West,267,2.6,6.5,66,0.00,,,4.21,WUHU216DAVISWMX,2013-02-24 06:15:00,
2013-02-24 01:20:00,26.6,16.8,29.91,West,267,0.0,6.5,66,0.00,,,4.21,WUHU216DAVISWMX,2013-02-24 06:20:00,
2013-02-24 01:25:00,26.6,16.8,29.92,West,269,6.5,7.8,66,0.00,,,4.21,WUHU216DAVISWMX,2013-02-24 06:25:00,
2013-02-24 01:30:00,26.5,16.7,29.92,West,269,1.3,7.8,66,0.00,,,4.21,WUHU216DAVISWMX,2013-02-24 06:30:00,
2013-02-24 01:35:00,26.4,16.6,29.92,West,269,1.3,6.5,66,0.00,,,4.21,WUHU216DAVISWMX,2013-02-24 06:35:00,
2013-02-24 01:40:00,26.3,16.5,29.92,West,269,1.3,7.8,66,0.00,,,4.21,WUHU216DAVISWMX,2013-02-24 06:40:00,
2013-02-24 01:45:00,26.2,16.4,29.92,West,269,2.6,7.8,66,0.00,,,4.21,WUHU216DAVISWMX,2013-02-24 06:45:00,
2013-02-24 01:50:00,26.2,16.4,29.92,West,268,3.9,7.8,66,0.00,,,4.21,WUHU216DAVISWMX,2013-02-24 06:50:00,
2013-02-24 01:55:00,26.2,16.4,29.92,West,268,2.6,7.8,66,0.00,,,4.21,WUHU216DAVISWMX,2013-02-24 06:55:00,
2013-02-24 02:00:00,26.3,16.5,29.92,West,268,0.0,6.5,66,0.00,,,4.21,WUHU216DAVISWMX,2013-02-24 07:00:00,
2013-02-24 02:05:00,26.3,16.5,29.93,West,268,7.8,7.8,66,0.00,,,4.21,WUHU216DAVISWMX,2013-02-24 07:05:00,
2013-02-24 02:10:00,26.3,16.9,29.93,West,268,3.9,7.8,67,0.00,,,4.21,WUHU216DAVISWMX,2013-02-24 07:10:00,
2013-02-24 02:15:00,26.2,16.8,29.93,West,268,1.3,6.5,67,0.00,,,4.21,WUHU216DAVISWMX,2013-02-24 07:15:00,
2013-02-24 02:20:00,26.2,16.8,29.93,West,268,2.6,6.5,67,0.00,,,4.21,WUHU216DAVISWMX,2013-02-24 07:20:00,
2013-02-24 02:25:00,26.1,16.7,29.93,West,278,3.9,7.8,67,0.00,,,4.21,WUHU216DAVISWMX,2013-02-24 07:25:00,
2013-02-24 02:30:00,26.1,16.7,29.93,West,275,3.9,7.8,67,0.00,,,4.21,WUHU216DAVISWMX,2013-02-24 07:30:00,
2013-02-24 02:35:00,26.1,16.7,29.93,West,275,2.6,6.5,67,0.00,,,4.21,WUHU216DAVISWMX,2013-02-24 07:35:00,
2013-02-24 02:40:00,26.0,16.6,29.93,West,274,5.2,6.5,67,0.00,,,4.21,WUHU216DAVISWMX,2013-02-24 07:40:00,
2013-02-24 02:45:00,25.9,16.5,29.94,West,261,2.6,7.8,67,0.00,,,4.21,WUHU216DAVISWMX,2013-02-24 07:45:00,
2013-02-24 02:50:00,26.0,16.6,29.94,West,261,3.9,7.8,67,0.00,,,4.21,WUHU216DAVISWMX,2013-02-24 07:50:00,
2013-02-24 02:55:00,26.0,16.6,29.94,West,260,6.5,7.8,67,0.00,,,4.21,WUHU216DAVISWMX,2013-02-24 07:55:00,
2013-02-24 03:00:00,26.0,16.6,29.93,West,262,6.5,7.8,67,0.00,,,4.21,WUHU216DAVISWMX,2013-02-24 08:00:00,
2013-02-24 03:05:00,26.1,16.7,29.94,West,262,5.2,7.8,67,0.00,,,4.21,WUHU216DAVISWMX,2013-02-24 08:05:00,
2013-02-24 03:10:00,26.0,16.6,29.94,West,271,3.9,7.8,67,0.00,,,4.21,WUHU216DAVISWMX,2013-02-24 08:10:00,
2013-02-24 03:15:00,26.0,16.6,29.94,West,267,2.6,9.1,67,0.00,,,4.21,WUHU216DAVISWMX,2013-02-24 08:15:00,
2013-02-24 03:20:00,26.1,16.7,29.94,West,267,1.3,9.1,67,0.00,,,4.21,WUHU216DAVISWMX,2013-02-24 08:20:00,
2013-02-24 03:25:00,26.0,16.6,29.94,West,265,1.3,10.4,67,0.00,,,4.21,WUHU216DAVISWMX,2013-02-24 08:25:00,
2013-02-24 03:30:00,26.0,16.6,29.94,West,264,6.5,10.4,67,0.00,,,4.21,WUHU216DAVISWMX,2013-02-24 08:30:00,
2013-02-24 03:35:00,26.1,16.7,29.94,WNW,284,5.2,9.1,67,0.00,,,4.21,WUHU216DAVISWMX,2013-02-24 08:35:00,
2013-02-24 03:40:00,26.1,16.7,29.94,West,270,5.2,7.8,67,0.00,,,4.21,WUHU216DAVISWMX,2013-02-24 08:40:00,
2013-02-24 03:45:00,26.1,16.7,29.94,West,269,3.9,9.1,67,0.00,,,4.21,WUHU216DAVISWMX,2013-02-24 08:45:00,
2013-02-24 03:50:00,26.1,17.0,29.94,West,263,3.9,11.7,68,0.00,,,4.21,WUHU216DAVISWMX,2013-02-24 08:50:00,
2013-02-24 03:55:00,26.0,16.9,29.94,West,270,5.2,11.7,68,0.00,,,4.21,WUHU216DAVISWMX,2013-02-24 08:55:00,
2013-02-24 04:00:00,26.0,16.9,29.94,West,269,7.8,9.1,68,0.00,,,4.21,WUHU216DAVISWMX,2013-02-24 09:00:00,
2013-02-24 04:05:00,26.0,17.3,29.94,West,269,3.9,9.1,69,0.00,,,4.21,WUHU216DAVISWMX,2013-02-24 09:05:00,
2013-02-24 04:10:00,25.9,17.2,29.94,West,268,6.5,10.4,69,0.00,,,4.21,WUHU216DAVISWMX,2013-02-24 09:10:00,
2013-02-24 04:15:00,25.9,17.2,29.94,West,272,3.9,10.4,69,0.00,,,4.21,WUHU216DAVISWMX,2013-02-24 09:15:00,
2013-02-24 04:20:00,25.8,17.4,29.94,West,269,2.6,9.1,70,0.00,,,4.21,WUHU216DAVISWMX,2013-02-24 09:20:00,
2013-02-24 04:25:00,25.7,17.3,29.94,West,278,6.5,10.4,70,0.00,,,4.21,WUHU216DAVISWMX,2013-02-24 09:25:00,
2013-02-24 04:30:00,25.5,17.5,29.94,West,277,6.5,10.4,71,0.00,,,4.21,WUHU216DAVISWMX,2013-02-24 09:30:00,
2013-02-24 04:35:00,25.5,17.5,29.94,West,275,5.2,7.8,71,0.00,,,4.21,WUHU216DAVISWMX,2013-02-24 09:35:00,
2013-02-24 04:40:00,25.4,17.4,29.94,West,272,3.9,9.1,71,0.00,,,4.21,WUHU216DAVISWMX,2013-02-24 09:40:00,
2013-02-24 04:45:00,25.3,17.6,29.94,West,272,2.6,9.1,72,0.00,,,4.21,WUHU216DAVISWMX,2013-02-24 09:45:00,
2013-02-24 04:50:00,25.3,17.6,29.94,West,272,2.6,7.8,72,0.00,,,4.21,WUHU216DAVISWMX,2013-02-24 09:50:00,
2013-02-24 04:55:00,25.3,17.9,29.94,West,271,5.2,6.5,73,0.00,,,4.21,WUHU216DAVISWMX,2013-02-24 09:55:00,
2013-02-24 05:00:00,25.3,17.9,29.94,West,271,1.3,6.5,73,0.00,,,4.21,WUHU216DAVISWMX,2013-02-24 10:00:00,
2013-02-24 05:05:00,25.2,17.8,29.94,West,271,3.9,7.8,73,0.00,,,4.21,WUHU216DAVISWMX,2013-02-24 10:05:00,
2013-02-24 05:10:00,25.3,17.9,29.94,West,271,2.6,7.8,73,0.00,,,4.21,WUHU216DAVISWMX,2013-02-24 10:10:00,
2013-02-24 05:15:00,25.3,17.6,29.94,West,271,2.6,7.8,72,0.00,,,4.21,WUHU216DAVISWMX,2013-02-24 10:15:00,
2013-02-24 05:19:00,25.3,17.6,29.94,West,271,1.3,7.8,72,0.00,,,4.21,WUHU216DAVISWMX,2013-02-24 10:19:00,
2013-02-24 05:24:00,25.4,17.7,29.94,West,271,3.9,7.8,72,0.00,,,4.21,WUHU216DAVISWMX,2013-02-24 10:24:00,
2013-02-24 05:29:00,25.3,17.6,29.94,West,271,3.9,7.8,72,0.00,,,4.21,WUHU216DAVISWMX,2013-02-24 10:29:00,
2013-02-24 05:34:00,25.3,17.6,29.95,West,271,1.3,6.5,72,0.00,,,4.21,WUHU216DAVISWMX,2013-02-24 10:34:00,
2013-02-24 05:39:00,25.2,17.5,29.95,West,271,5.2,6.5,72,0.00,,,4.21,WUHU216DAVISWMX,2013-02-24 10:39:00,
2013-02-24 05:44:00,25.1,17.4,29.95,West,271,5.2,7.8,72,0.00,,,4.21,WUHU216DAVISWMX,2013-02-24 10:44:00,
2013-02-24 05:49:00,25.0,17.3,29.95,West,271,3.9,7.8,72,0.00,,,4.21,WUHU216DAVISWMX,2013-02-24 10:49:00,
2013-02-24 05:54:00,25.0,17.3,29.95,West,271,3.9,7.8,72,0.00,,,4.21,WUHU216DAVISWMX,2013-02-24 10:54:00,
2013-02-24 05:59:00,25.0,17.3,29.96,West,270,5.2,7.8,72,0.00,,,4.21,WUHU216DAVISWMX,2013-02-24 10:59:00,
2013-02-24 06:04:00,25.0,17.3,29.96,West,279,5.2,9.1,72,0.00,,,4.21,WUHU216DAVISWMX,2013-02-24 11:04:00,
2013-02-24 06:09:00,25.0,17.3,29.96,West,277,7.8,9.1,72,0.00,,,4.21,WUHU216DAVISWMX,2013-02-24 11:09:00,
2013-02-24 06:14:00,25.0,17.0,29.96,West,275,3.9,9.1,71,0.00,,,4.21,WUHU216DAVISWMX,2013-02-24 11:14:00,
2013-02-24 06:19:00,25.0,17.3,29.96,West,274,7.8,9.1,72,0.00,,,4.21,WUHU216DAVISWMX,2013-02-24 11:19:00,
2013-02-24 06:24:00,24.9,16.9,29.96,West,272,6.5,11.7,71,0.00,,,4.21,WUHU216DAVISWMX,2013-02-24 11:24:00,
2013-02-24 06:29:00,25.0,17.3,29.96,West,272,7.8,11.7,72,0.00,,,4.21,WUHU216DAVISWMX,2013-02-24 11:29:00,
2013-02-24 06:34:00,25.0,17.0,29.96,West,271,3.9,9.1,71,0.00,,,4.21,WUHU216DAVISWMX,2013-02-24 11:34:00,
2013-02-24 06:39:00,25.0,17.0,29.97,West,271,2.6,7.8,71,0.00,,,4.21,WUHU216DAVISWMX,2013-02-24 11:39:00,
2013-02-24 06:44:00,25.0,17.0,29.97,West,270,3.9,7.8,71,0.00,,,4.21,WUHU216DAVISWMX,2013-02-24 11:44:00,
2013-02-24 06:49:00,25.0,17.0,29.97,West,270,1.3,7.8,71,0.00,,,4.21,WUHU216DAVISWMX,2013-02-24 11:49:00,
2013-02-24 06:54:00,25.0,17.0,29.97,West,270,3.9,7.8,71,0.00,,,4.21,WUHU216DAVISWMX,2013-02-24 11:54:00,
2013-02-24 06:59:00,25.0,17.0,29.97,West,270,3.9,7.8,71,0.00,,,4.21,WUHU216DAVISWMX,2013-02-24 11:59:00,
2013-02-24 07:04:00,25.1,16.7,29.97,West,269,2.6,9.1,70,0.00,,,4.21,WUHU216DAVISWMX,2013-02-24 12:04:00,
2013-02-24 07:09:00,25.1,17.1,29.97,West,269,2.6,10.4,71,0.00,,,4.21,WUHU216DAVISWMX,2013-02-24 12:09:00,
2013-02-24 07:14:00,25.1,17.1,29.97,West,268,10.4,10.4,71,0.00,,,4.21,WUHU216DAVISWMX,2013-02-24 12:14:00,
2013-02-24 07:19:00,25.2,17.2,29.97,West,267,5.2,11.7,71,0.00,,,4.21,WUHU216DAVISWMX,2013-02-24 12:19:00,
2013-02-24 07:24:00,25.2,17.2,29.97,West,267,2.6,11.7,71,0.00,,,4.21,WUHU216DAVISWMX,2013-02-24 12:24:00,
2013-02-24 07:29:00,25.2,16.8,29.98,West,267,5.2,7.8,70,0.00,,,4.21,WUHU216DAVISWMX,2013-02-24 12:29:00,
2013-02-24 07:34:00,25.3,17.3,29.98,West,266,1.3,7.8,71,0.00,,,4.21,WUHU216DAVISWMX,2013-02-24 12:34:00,
2013-02-24 07:39:00,25.4,17.0,29.98,West,266,2.6,7.8,70,0.00,,,4.21,WUHU216DAVISWMX,2013-02-24 12:39:00,
2013-02-24 07:44:00,25.4,17.4,29.98,West,266,2.6,7.8,71,0.00,,,4.21,WUHU216DAVISWMX,2013-02-24 12:44:00,
2013-02-24 07:49:00,25.4,17.4,29.98,West,266,3.9,7.8,71,0.00,,,4.21,WUHU216DAVISWMX,2013-02-24 12:49:00,
2013-02-24 07:54:00,25.3,17.3,29.99,West,265,5.2,7.8,71,0.00,,,4.21,WUHU216DAVISWMX,2013-02-24 12:54:00,
2013-02-24 07:59:00,25.3,17.3,29.99,West,265,3.9,7.8,71,0.00,,,4.21,WUHU216DAVISWMX,2013-02-24 12:59:00,
2013-02-24 08:04:00,25.5,17.1,29.99,West,265,3.9,14.3,70,0.00,,,4.21,WUHU216DAVISWMX,2013-02-24 13:04:00,
2013-02-24 08:09:00,25.6,17.2,29.99,West,265,2.6,14.3,70,0.00,,,4.21,WUHU216DAVISWMX,2013-02-24 13:09:00,
2013-02-24 08:14:00,25.7,17.3,29.99,West,265,7.8,10.4,70,0.00,,,4.21,WUHU216DAVISWMX,2013-02-24 13:14:00,
2013-02-24 08:19:00,25.8,17.4,29.99,West,274,9.1,10.4,70,0.00,,,4.21,WUHU216DAVISWMX,2013-02-24 13:19:00,
2013-02-24 08:24:00,26.0,17.6,29.99,West,271,5.2,10.4,70,0.00,,,4.21,WUHU216DAVISWMX,2013-02-24 13:24:00,
2013-02-24 08:29:00,26.1,17.4,29.99,West,269,7.8,10.4,69,0.00,,,4.21,WUHU216DAVISWMX,2013-02-24 13:29:00,
2013-02-24 08:34:00,26.3,17.6,29.99,West,265,5.2,13.0,69,0.00,,,4.21,WUHU216DAVISWMX,2013-02-24 13:34:00,
2013-02-24 08:39:00,27.0,17.6,29.99,West,268,6.5,13.0,67,0.00,,,4.21,WUHU216DAVISWMX,2013-02-24 13:39:00,
2013-02-24 08:44:00,27.6,18.1,29.99,West,266,2.6,11.7,67,0.00,,,4.21,WUHU216DAVISWMX,2013-02-24 13:44:00,
2013-02-24 08:49:00,27.7,17.9,29.99,West,267,7.8,10.4,66,0.00,,,4.21,WUHU216DAVISWMX,2013-02-24 13:49:00,
2013-02-24 08:54:00,27.8,18.0,30.00,West,272,5.2,10.4,66,0.00,,,4.21,WUHU216DAVISWMX,2013-02-24 13:54:00,
2013-02-24 08:59:00,28.4,18.2,29.99,West,266,5.2,11.7,65,0.00,,,4.21,WUHU216DAVISWMX,2013-02-24 13:59:00,
2013-02-24 09:04:00,29.0,18.4,29.99,WSW,252,5.2,11.7,64,0.00,,,4.21,WUHU216DAVISWMX,2013-02-24 14:04:00,
2013-02-24 09:09:00,29.7,18.3,30.00,West,260,5.2,10.4,62,0.00,,,4.21,WUHU216DAVISWMX,2013-02-24 14:09:00,
2013-02-24 09:14:00,30.4,18.6,30.00,WSW,257,6.5,9.1,61,0.00,,,4.21,WUHU216DAVISWMX,2013-02-24 14:14:00,
2013-02-24 09:19:00,29.8,18.4,30.00,WSW,253,3.9,11.7,62,0.00,,,4.21,WUHU216DAVISWMX,2013-02-24 14:19:00,
2013-02-24 09:24:00,29.1,18.5,30.00,West,272,5.2,11.7,64,0.00,,,4.21,WUHU216DAVISWMX,2013-02-24 14:24:00,
2013-02-24 09:29:00,29.4,18.8,30.00,WSW,251,5.2,10.4,64,0.00,,,4.21,WUHU216DAVISWMX,2013-02-24 14:29:00,
2013-02-24 09:34:00,29.4,19.1,30.00,WSW,255,6.5,10.4,65,0.00,,,4.21,WUHU216DAVISWMX,2013-02-24 14:34:00,
2013-02-24 09:39:00,29.5,18.9,30.00,West,270,6.5,10.4,64,0.00,,,4.21,WUHU216DAVISWMX,2013-02-24 14:39:00,
2013-02-24 09:44:00,29.6,19.0,30.00,West,271,6.5,10.4,64,0.00,,,4.21,WUHU216DAVISWMX,2013-02-24 14:44:00,
2013-02-24 09:49:00,30.6,19.6,30.00,West,272,10.4,11.7,63,0.00,,,4.21,WUHU216DAVISWMX,2013-02-24 14:49:00,
2013-02-24 09:54:00,31.8,19.9,30.00,WSW,252,3.9,10.4,61,0.00,,,4.21,WUHU216DAVISWMX,2013-02-24 14:54:00,
2013-02-24 09:59:00,31.8,19.5,30.00,West,259,6.5,10.4,60,0.00,,,4.21,WUHU216DAVISWMX,2013-02-24 14:59:00,
2013-02-24 10:04:00,32.2,19.9,30.00,West,264,6.5,10.4,60,0.00,,,4.21,WUHU216DAVISWMX,2013-02-24 15:04:00,
2013-02-24 10:09:00,33.0,20.3,30.00,West,259,5.2,10.4,59,0.00,,,4.21,WUHU216DAVISWMX,2013-02-24 15:09:00,
2013-02-24 10:14:00,33.4,20.2,30.00,West,265,6.5,13.0,58,0.00,,,4.21,WUHU216DAVISWMX,2013-02-24 15:14:00,
2013-02-24 10:19:00,33.1,20.8,30.00,WSW,251,6.5,13.0,60,0.00,,,4.21,WUHU216DAVISWMX,2013-02-24 15:19:00,
2013-02-24 10:24:00,32.7,20.4,30.00,West,274,5.2,10.4,60,0.00,,,4.21,WUHU216DAVISWMX,2013-02-24 15:24:00,
2013-02-24 10:29:00,33.2,20.9,30.00,West,260,5.2,10.4,60,0.00,,,4.21,WUHU216DAVISWMX,2013-02-24 15:29:00,
2013-02-24 10:34:00,34.4,20.8,30.00,West,266,5.2,11.7,57,0.00,,,4.21,WUHU216DAVISWMX,2013-02-24 15:34:00,
2013-02-24 10:39:00,35.9,21.7,30.01,WNW,288,5.2,11.7,56,0.00,,,4.21,WUHU216DAVISWMX,2013-02-24 15:39:00,
2013-02-24 10:44:00,35.9,21.7,30.01,West,271,6.5,11.7,56,0.00,,,4.21,WUHU216DAVISWMX,2013-02-24 15:44:00,
2013-02-24 10:49:00,34.6,20.9,30.01,West,271,7.8,19.5,57,0.00,,,4.21,WUHU216DAVISWMX,2013-02-24 15:49:00,
2013-02-24 10:54:00,34.3,21.5,30.01,WNW,283,5.2,19.5,59,0.00,,,4.21,WUHU216DAVISWMX,2013-02-24 15:54:00,
2013-02-24 10:59:00,33.8,21.0,30.01,West,271,7.8,11.7,59,0.00,,,4.21,WUHU216DAVISWMX,2013-02-24 15:59:00,
2013-02-24 11:04:00,33.5,21.1,30.01,West,266,3.9,18.2,60,0.00,,,4.21,WUHU216DAVISWMX,2013-02-24 16:04:00,
2013-02-24 11:09:00,34.2,21.4,30.01,WSW,257,7.8,18.2,59,0.00,,,4.21,WUHU216DAVISWMX,2013-02-24 16:09:00,
2013-02-24 11:14:00,34.6,21.8,30.01,West,262,6.5,9.1,59,0.00,,,4.21,WUHU216DAVISWMX,2013-02-24 16:14:00,
2013-02-24 11:19:00,35.1,21.8,30.01,West,272,10.4,13.0,58,0.00,,,4.21,WUHU216DAVISWMX,2013-02-24 16:19:00,
2013-02-24 11:24:00,34.9,22.1,30.01,West,266,9.1,19.5,59,0.00,,,4.21,WUHU216DAVISWMX,2013-02-24 16:24:00,
2013-02-24 11:29:00,34.8,21.6,30.01,West,266,5.2,19.5,58,0.00,,,4.21,WUHU216DAVISWMX,2013-02-24 16:29:00,
2013-02-24 11:34:00,34.4,21.2,30.01,WSW,252,10.4,13.0,58,0.00,,,4.21,WUHU216DAVISWMX,2013-02-24 16:34:00,
2013-02-24 11:39:00,34.1,21.3,30.01,West,261,3.9,13.0,59,0.00,,,4.21,WUHU216DAVISWMX,2013-02-24 16:39:00,
2013-02-24 11:44:00,34.3,21.9,30.01,West,272,9.1,15.6,60,0.00,,,4.21,WUHU216DAVISWMX,2013-02-24 16:44:00,
2013-02-24 11:49:00,34.6,21.8,30.01,West,270,7.8,15.6,59,0.01,,,4.22,WUHU216DAVISWMX,2013-02-24 16:49:00,
2013-02-24 11:54:00,34.6,21.8,30.01,WSW,256,9.1,13.0,59,0.01,,,4.22,WUHU216DAVISWMX,2013-02-24 16:54:00,
2013-02-24 11:59:00,34.2,21.4,30.02,West,268,9.1,13.0,59,0.01,,,4.22,WUHU216DAVISWMX,2013-02-24 16:59:00,
2013-02-24 12:04:00,34.1,21.7,30.02,West,269,10.4,16.9,60,0.01,,,4.22,WUHU216DAVISWMX,2013-02-24 17:04:00,
2013-02-24 12:09:00,34.1,22.1,30.02,West,268,11.7,16.9,61,0.01,,,4.22,WUHU216DAVISWMX,2013-02-24 17:09:00,
2013-02-24 12:14:00,34.4,22.0,30.02,West,267,11.7,18.2,60,0.01,,,4.22,WUHU216DAVISWMX,2013-02-24 17:14:00,
2013-02-24 12:19:00,34.3,22.3,30.01,West,266,5.2,18.2,61,0.01,,,4.22,WUHU216DAVISWMX,2013-02-24 17:19:00,
2013-02-24 12:24:00,34.3,22.3,30.02,West,261,5.2,14.3,61,0.01,,,4.22,WUHU216DAVISWMX,2013-02-24 17:24:00,
2013-02-24 12:29:00,34.6,22.6,30.02,West,264,6.5,14.3,61,0.01,,,4.22,WUHU216DAVISWMX,2013-02-24 17:29:00,
2013-02-24 12:34:00,35.1,22.7,30.02,West,269,7.8,11.7,60,0.01,,,4.22,WUHU216DAVISWMX,2013-02-24 17:34:00,
2013-02-24 12:39:00,35.4,22.5,30.02,West,275,6.5,13.0,59,0.01,,,4.22,WUHU216DAVISWMX,2013-02-24 17:39:00,
2013-02-24 12:44:00,35.3,22.4,30.02,West,264,10.4,13.0,59,0.01,,,4.22,WUHU216DAVISWMX,2013-02-24 17:44:00,
2013-02-24 12:49:00,35.5,22.6,30.02,West,270,5.2,14.3,59,0.00,,,4.22,WUHU216DAVISWMX,2013-02-24 17:49:00,
2013-02-24 12:54:00,35.7,22.8,30.02,West,271,10.4,14.3,59,0.00,,,4.22,WUHU216DAVISWMX,2013-02-24 17:54:00,
2013-02-24 12:59:00,35.7,22.4,30.02,West,275,5.2,11.7,58,0.00,,,4.23,WUHU216DAVISWMX,2013-02-24 17:59:00,
2013-02-24 13:04:00,35.7,22.8,30.02,West,263,3.9,9.1,59,0.01,,,4.23,WUHU216DAVISWMX,2013-02-24 18:04:00,
2013-02-24 13:09:00,35.6,22.7,30.02,West,276,5.2,9.1,59,0.01,,,4.23,WUHU216DAVISWMX,2013-02-24 18:09:00,
2013-02-24 13:14:00,35.9,23.0,30.02,West,267,6.5,9.1,59,0.01,,,4.23,WUHU216DAVISWMX,2013-02-24 18:14:00,
2013-02-24 13:19:00,36.3,23.0,30.02,West,273,9.1,11.7,58,0.01,,,4.23,WUHU216DAVISWMX,2013-02-24 18:19:00,
2013-02-24 13:24:00,36.4,23.1,30.02,West,268,9.1,11.7,58,0.01,,,4.23,WUHU216DAVISWMX,2013-02-24 18:24:00,
2013-02-24 13:29:00,36.7,22.9,30.02,West,263,7.8,10.4,57,0.01,,,4.23,WUHU216DAVISWMX,2013-02-24 18:29:00,
2013-02-24 13:34:00,36.7,22.5,30.02,West,268,10.4,14.3,56,0.01,,,4.23,WUHU216DAVISWMX,2013-02-24 18:34:00,
2013-02-24 13:39:00,37.0,23.2,30.02,WSW,257,6.5,14.3,57,0.01,,,4.23,WUHU216DAVISWMX,2013-02-24 18:39:00,
2013-02-24 13:44:00,37.1,22.4,30.02,West,268,11.7,14.3,55,0.01,,,4.23,WUHU216DAVISWMX,2013-02-24 18:44:00,
2013-02-24 13:49:00,37.4,23.1,30.03,WNW,285,11.7,14.3,56,0.01,,,4.23,WUHU216DAVISWMX,2013-02-24 18:49:00,
2013-02-24 13:54:00,37.8,23.1,30.02,West,265,10.4,14.3,55,0.01,,,4.23,WUHU216DAVISWMX,2013-02-24 18:54:00,
2013-02-24 13:59:00,38.0,23.3,30.02,West,262,6.5,13.0,55,0.00,,,4.23,WUHU216DAVISWMX,2013-02-24 18:59:00,
2013-02-24 14:04:00,37.9,22.7,30.02,West,267,11.7,15.6,54,0.00,,,4.23,WUHU216DAVISWMX,2013-02-24 19:04:00,
2013-02-24 14:09:00,38.4,22.7,30.03,West,265,14.3,15.6,53,0.00,,,4.23,WUHU216DAVISWMX,2013-02-24 19:09:00,
2013-02-24 14:14:00,38.1,22.5,30.03,West,275,6.5,15.6,53,0.00,,,4.23,WUHU216DAVISWMX,2013-02-24 19:14:00,
2013-02-24 14:19:00,38.0,22.4,30.03,WSW,258,11.7,15.6,53,0.00,,,4.23,WUHU216DAVISWMX,2013-02-24 19:19:00,
2013-02-24 14:24:00,37.6,22.9,30.03,West,280,7.8,14.3,55,0.00,,,4.23,WUHU216DAVISWMX,2013-02-24 19:24:00,
2013-02-24 14:29:00,37.7,23.0,30.03,West,267,6.5,14.3,55,0.00,,,4.23,WUHU216DAVISWMX,2013-02-24 19:29:00,
2013-02-24 14:34:00,37.5,22.4,30.03,West,260,7.8,14.3,54,0.00,,,4.23,WUHU216DAVISWMX,2013-02-24 19:34:00,
2013-02-24 14:39:00,36.9,22.2,30.03,West,265,6.5,15.6,55,0.00,,,4.23,WUHU216DAVISWMX,2013-02-24 19:39:00,
2013-02-24 14:44:00,36.5,22.3,30.03,West,275,6.5,15.6,56,0.00,,,4.23,WUHU216DAVISWMX,2013-02-24 19:44:00,
2013-02-24 14:49:00,36.4,22.2,30.03,West,264,11.7,13.0,56,0.00,,,4.23,WUHU216DAVISWMX,2013-02-24 19:49:00,
2013-02-24 14:54:00,36.4,22.2,30.03,West,262,10.4,15.6,56,0.00,,,4.23,WUHU216DAVISWMX,2013-02-24 19:54:00,
2013-02-24 14:59:00,36.7,22.5,30.03,West,275,1.3,15.6,56,0.00,,,4.23,WUHU216DAVISWMX,2013-02-24 19:59:00,
2013-02-24 15:04:00,36.7,22.5,30.04,West,266,7.8,11.7,56,0.00,,,4.23,WUHU216DAVISWMX,2013-02-24 20:04:00,
2013-02-24 15:09:00,36.5,22.3,30.04,West,267,9.1,14.3,56,0.00,,,4.23,WUHU216DAVISWMX,2013-02-24 20:09:00,
2013-02-24 15:14:00,36.3,22.5,30.04,West,272,11.7,15.6,57,0.00,,,4.23,WUHU216DAVISWMX,2013-02-24 20:14:00,
2013-02-24 15:19:00,36.4,22.2,30.04,WNW,282,6.5,15.6,56,0.00,,,4.23,WUHU216DAVISWMX,2013-02-24 20:19:00,
2013-02-24 15:24:00,36.5,22.3,30.04,West,272,10.4,15.6,56,0.00,,,4.23,WUHU216DAVISWMX,2013-02-24 20:24:00,
2013-02-24 15:29:00,36.5,22.3,30.04,WNW,287,7.8,11.7,56,0.00,,,4.23,WUHU216DAVISWMX,2013-02-24 20:29:00,
2013-02-24 15:34:00,36.3,22.1,30.04,West,275,7.8,10.4,56,0.00,,,4.23,WUHU216DAVISWMX,2013-02-24 20:34:00,
2013-02-24 15:39:00,36.2,22.5,30.04,West,272,7.8,11.7,57,0.00,,,4.23,WUHU216DAVISWMX,2013-02-24 20:39:00,
2013-02-24 15:44:00,36.1,22.4,30.04,West,265,14.3,14.3,57,0.00,,,4.23,WUHU216DAVISWMX,2013-02-24 20:44:00,
2013-02-24 15:49:00,36.0,21.8,30.05,West,280,9.1,14.3,56,0.00,,,4.23,WUHU216DAVISWMX,2013-02-24 20:49:00,
2013-02-24 15:54:00,35.9,22.2,30.05,West,263,10.4,14.3,57,0.00,,,4.23,WUHU216DAVISWMX,2013-02-24 20:54:00,
2013-02-24 15:59:00,35.9,22.2,30.05,West,276,7.8,11.7,57,0.00,,,4.23,WUHU216DAVISWMX,2013-02-24 20:59:00,
2013-02-24 16:04:00,35.8,22.1,30.05,West,265,5.2,11.7,57,0.00,,,4.23,WUHU216DAVISWMX,2013-02-24 21:04:00,
2013-02-24 16:09:00,35.7,22.0,30.05,West,271,3.9,10.4,57,0.00,,,4.23,WUHU216DAVISWMX,2013-02-24 21:09:00,
2013-02-24 16:14:00,35.5,22.2,30.06,West,264,5.2,9.1,58,0.00,,,4.23,WUHU216DAVISWMX,2013-02-24 21:14:00,
2013-02-24 16:19:00,35.5,22.6,30.06,West,263,3.9,9.1,59,0.00,,,4.23,WUHU216DAVISWMX,2013-02-24 21:19:00,
2013-02-24 16:24:00,35.4,22.1,30.06,West,277,3.9,9.1,58,0.00,,,4.23,WUHU216DAVISWMX,2013-02-24 21:24:00,
2013-02-24 16:29:00,35.4,22.5,30.06,West,272,3.9,7.8,59,0.00,,,4.23,WUHU216DAVISWMX,2013-02-24 21:29:00,
2013-02-24 16:34:00,35.4,22.5,30.07,West,272,1.3,7.8,59,0.00,,,4.23,WUHU216DAVISWMX,2013-02-24 21:34:00,
2013-02-24 16:39:00,35.4,22.9,30.07,West,272,3.9,7.8,60,0.00,,,4.23,WUHU216DAVISWMX,2013-02-24 21:39:00,
2013-02-24 16:44:00,35.4,22.9,30.07,West,265,5.2,9.1,60,0.00,,,4.23,WUHU216DAVISWMX,2013-02-24 21:44:00,
2013-02-24 16:49:00,35.4,22.9,30.07,West,274,5.2,9.1,60,0.00,,,4.23,WUHU216DAVISWMX,2013-02-24 21:49:00,
2013-02-24 16:54:00,35.4,22.5,30.06,West,266,5.2,9.1,59,0.00,,,4.23,WUHU216DAVISWMX,2013-02-24 21:54:00,
2013-02-24 16:59:00,35.3,22.8,30.07,West,278,6.5,9.1,60,0.00,,,4.23,WUHU216DAVISWMX,2013-02-24 21:59:00,
2013-02-24 17:04:00,35.3,22.8,30.07,West,263,2.6,14.3,60,0.00,,,4.23,WUHU216DAVISWMX,2013-02-24 22:04:00,
2013-02-24 17:09:00,35.3,23.2,30.07,West,264,5.2,14.3,61,0.00,,,4.23,WUHU216DAVISWMX,2013-02-24 22:09:00,
2013-02-24 17:14:00,35.2,23.2,30.07,West,266,5.2,9.1,61,0.00,,,4.23,WUHU216DAVISWMX,2013-02-24 22:14:00,
2013-02-24 17:19:00,35.1,23.1,30.08,West,267,6.5,7.8,61,0.00,,,4.23,WUHU216DAVISWMX,2013-02-24 22:19:00,
2013-02-24 17:24:00,35.1,23.1,30.08,West,261,5.2,7.8,61,0.00,,,4.23,WUHU216DAVISWMX,2013-02-24 22:24:00,
2013-02-24 17:29:00,35.1,23.4,30.08,West,274,2.6,7.8,62,0.00,,,4.23,WUHU216DAVISWMX,2013-02-24 22:29:00,
2013-02-24 17:34:00,35.1,23.4,30.08,West,273,5.2,6.5,62,0.00,,,4.23,WUHU216DAVISWMX,2013-02-24 22:34:00,
2013-02-24 17:39:00,35.1,23.4,30.08,West,272,2.6,6.5,62,0.00,,,4.23,WUHU216DAVISWMX,2013-02-24 22:39:00,
2013-02-24 17:44:00,35.0,23.4,30.08,West,270,5.2,7.8,62,0.00,,,4.23,WUHU216DAVISWMX,2013-02-24 22:44:00,
2013-02-24 17:49:00,35.0,23.4,30.08,West,270,3.9,7.8,62,0.00,,,4.23,WUHU216DAVISWMX,2013-02-24 22:49:00,
2013-02-24 17:54:00,34.9,23.3,30.08,WSW,256,6.5,7.8,62,0.00,,,4.23,WUHU216DAVISWMX,2013-02-24 22:54:00,
2013-02-24 17:59:00,34.9,23.3,30.08,WSW,255,2.6,7.8,62,0.00,,,4.23,WUHU216DAVISWMX,2013-02-24 22:59:00,
2013-02-24 18:04:00,34.8,23.5,30.09,West,262,1.3,7.8,63,0.00,,,4.23,WUHU216DAVISWMX,2013-02-24 23:04:00,
2013-02-24 18:09:00,34.8,23.5,30.09,West,262,1.3,7.8,63,0.00,,,4.23,WUHU216DAVISWMX,2013-02-24 23:09:00,
2013-02-24 18:14:00,34.7,23.5,30.09,West,263,3.9,6.5,63,0.00,,,4.23,WUHU216DAVISWMX,2013-02-24 23:14:00,
2013-02-24 18:19:00,34.7,23.5,30.09,West,263,2.6,6.5,63,0.00,,,4.23,WUHU216DAVISWMX,2013-02-24 23:19:00,
2013-02-24 18:24:00,34.7,23.8,30.09,West,263,1.3,3.9,64,0.00,,,4.23,WUHU216DAVISWMX,2013-02-24 23:24:00,
2013-02-24 18:29:00,34.6,23.7,30.10,West,263,2.6,3.9,64,0.00,,,4.23,WUHU216DAVISWMX,2013-02-24 23:29:00,
2013-02-24 18:34:00,34.5,23.6,30.10,West,263,3.9,6.5,64,0.00,,,4.23,WUHU216DAVISWMX,2013-02-24 23:34:00,
2013-02-24 18:39:00,34.5,23.6,30.10,West,263,2.6,6.5,64,0.00,,,4.23,WUHU216DAVISWMX,2013-02-24 23:39:00,
2013-02-24 18:44:00,34.5,23.6,30.10,West,263,1.3,6.5,64,0.00,,,4.23,WUHU216DAVISWMX,2013-02-24 23:44:00,
2013-02-24 18:49:00,34.5,23.6,30.11,West,263,2.6,6.5,64,0.00,,,4.23,WUHU216DAVISWMX,2013-02-24 23:49:00,
2013-02-24 18:54:00,34.5,23.6,30.11,West,263,5.2,5.2,64,0.00,,,4.23,WUHU216DAVISWMX,2013-02-24 23:54:00,
2013-02-24 18:59:00,34.5,23.6,30.11,West,263,1.3,5.2,64,0.00,,,4.23,WUHU216DAVISWMX,2013-02-24 23:59:00,
2013-02-24 19:04:00,34.4,23.5,30.11,West,263,5.2,5.2,64,0.00,,,4.23,WUHU216DAVISWMX,2013-02-25 00:04:00,
2013-02-24 19:09:00,34.4,23.5,30.11,West,263,1.3,6.5,64,0.00,,,4.23,WUHU216DAVISWMX,2013-02-25 00:09:00,
2013-02-24 19:14:00,34.3,23.5,30.12,West,263,3.9,6.5,64,0.00,,,4.23,WUHU216DAVISWMX,2013-02-25 00:14:00,
2013-02-24 19:19:00,34.3,23.8,30.11,West,263,5.2,5.2,65,0.00,,,4.23,WUHU216DAVISWMX,2013-02-25 00:19:00,
2013-02-24 19:24:00,34.3,23.8,30.12,West,263,2.6,6.5,65,0.00,,,4.23,WUHU216DAVISWMX,2013-02-25 00:24:00,
2013-02-24 19:29:00,34.3,23.8,30.12,West,263,2.6,6.5,65,0.00,,,4.23,WUHU216DAVISWMX,2013-02-25 00:29:00,
2013-02-24 19:34:00,34.3,23.8,30.12,West,263,2.6,5.2,65,0.00,,,4.23,WUHU216DAVISWMX,2013-02-25 00:34:00,
2013-02-24 19:39:00,34.3,23.8,30.12,West,263,1.3,5.2,65,0.00,,,4.23,WUHU216DAVISWMX,2013-02-25 00:39:00,
2013-02-24 19:44:00,34.3,23.8,30.12,West,263,1.3,5.2,65,0.00,,,4.23,WUHU216DAVISWMX,2013-02-25 00:44:00,
2013-02-24 19:49:00,34.2,23.7,30.12,West,263,2.6,5.2,65,0.00,,,4.23,WUHU216DAVISWMX,2013-02-25 00:49:00,
2013-02-24 19:54:00,34.2,23.7,30.12,West,263,3.9,6.5,65,0.00,,,4.23,WUHU216DAVISWMX,2013-02-25 00:54:00,
2013-02-24 19:59:00,34.1,23.6,30.12,West,263,1.3,6.5,65,0.00,,,4.23,WUHU216DAVISWMX,2013-02-25 00:59:00,
2013-02-24 20:04:00,33.9,23.8,30.13,West,263,1.3,7.8,66,0.00,,,4.23,WUHU216DAVISWMX,2013-02-25 01:04:00,
2013-02-24 20:09:00,33.8,23.7,30.13,West,263,2.6,7.8,66,0.00,,,4.23,WUHU216DAVISWMX,2013-02-25 01:09:00,
2013-02-24 20:14:00,33.7,23.6,30.13,West,263,2.6,5.2,66,0.00,,,4.23,WUHU216DAVISWMX,2013-02-25 01:14:00,
2013-02-24 20:19:00,33.6,23.9,30.13,West,263,0.0,5.2,67,0.00,,,4.23,WUHU216DAVISWMX,2013-02-25 01:19:00,
2013-02-24 20:24:00,33.5,23.8,30.13,West,263,0.0,3.9,67,0.00,,,4.23,WUHU216DAVISWMX,2013-02-25 01:24:00,
2013-02-24 20:29:00,33.5,23.8,30.13,West,263,3.9,3.9,67,0.00,,,4.23,WUHU216DAVISWMX,2013-02-25 01:29:00,
2013-02-24 20:34:00,33.4,23.7,30.14,West,263,1.3,5.2,67,0.00,,,4.23,WUHU216DAVISWMX,2013-02-25 01:34:00,
2013-02-24 20:39:00,33.3,23.6,30.14,West,263,0.0,5.2,67,0.00,,,4.23,WUHU216DAVISWMX,2013-02-25 01:39:00,
2013-02-24 20:44:00,33.2,23.8,30.13,West,263,0.0,3.9,68,0.00,,,4.23,WUHU216DAVISWMX,2013-02-25 01:44:00,
2013-02-24 20:49:00,33.0,23.7,30.14,West,263,0.0,3.9,68,0.00,,,4.23,WUHU216DAVISWMX,2013-02-25 01:49:00,
2013-02-24 20:54:00,32.7,23.4,30.14,West,263,1.3,2.6,68,0.00,,,4.23,WUHU216DAVISWMX,2013-02-25 01:54:00,
2013-02-24 20:59:00,32.5,23.5,30.13,West,263,0.0,2.6,69,0.00,,,4.23,WUHU216DAVISWMX,2013-02-25 01:59:00,
2013-02-24 21:04:00,32.2,23.2,30.13,West,263,0.0,1.3,69,0.00,,,4.23,WUHU216DAVISWMX,2013-02-25 02:04:00,
2013-02-24 21:09:00,31.6,22.7,30.13,West,263,0.0,1.3,69,0.00,,,4.23,WUHU216DAVISWMX,2013-02-25 02:09:00,
2013-02-24 21:14:00,31.0,22.1,30.13,West,263,0.0,1.3,69,0.00,,,4.23,WUHU216DAVISWMX,2013-02-25 02:14:00,
2013-02-24 21:19:00,30.3,21.7,30.13,West,263,0.0,1.3,70,0.00,,,4.23,WUHU216DAVISWMX,2013-02-25 02:19:00,
2013-02-24 21:24:00,29.7,21.2,30.13,West,263,0.0,0.0,70,0.00,,,4.23,WUHU216DAVISWMX,2013-02-25 02:24:00,
2013-02-24 21:29:00,29.1,20.9,30.13,West,263,0.0,0.0,71,0.00,,,4.23,WUHU216DAVISWMX,2013-02-25 02:29:00,
2013-02-24 21:34:00,28.7,20.9,30.13,West,263,0.0,0.0,72,0.00,,,4.23,WUHU216DAVISWMX,2013-02-25 02:34:00,
2013-02-24 21:39:00,28.4,20.6,30.13,West,263,0.0,0.0,72,0.00,,,4.23,WUHU216DAVISWMX,2013-02-25 02:39:00,
2013-02-24 21:44:00,28.2,20.7,30.13,West,263,0.0,0.0,73,0.00,,,4.23,WUHU216DAVISWMX,2013-02-25 02:44:00,
2013-02-24 21:49:00,28.0,20.5,30.13,West,263,0.0,0.0,73,0.00,,,4.23,WUHU216DAVISWMX,2013-02-25 02:49:00,
2013-02-24 21:54:00,27.8,20.3,30.13,West,263,0.0,0.0,73,0.00,,,4.23,WUHU216DAVISWMX,2013-02-25 02:54:00,
2013-02-24 21:59:00,27.6,20.4,30.13,West,263,0.0,0.0,74,0.00,,,4.23,WUHU216DAVISWMX,2013-02-25 02:59:00,
2013-02-24 22:04:00,27.5,20.7,30.14,West,263,0.0,0.0,75,0.00,,,4.23,WUHU216DAVISWMX,2013-02-25 03:04:00,
2013-02-24 22:09:00,27.4,20.6,30.14,West,263,0.0,0.0,75,0.00,,,4.23,WUHU216DAVISWMX,2013-02-25 03:09:00,
2013-02-24 22:14:00,27.4,20.9,30.14,West,263,0.0,0.0,76,0.00,,,4.23,WUHU216DAVISWMX,2013-02-25 03:14:00,
2013-02-24 22:19:00,27.6,21.4,30.15,West,263,2.6,2.6,77,0.00,,,4.23,WUHU216DAVISWMX,2013-02-25 03:19:00,
2013-02-24 22:24:00,28.8,22.8,30.15,West,263,1.3,2.6,78,0.00,,,4.23,WUHU216DAVISWMX,2013-02-25 03:24:00,
2013-02-24 22:29:00,29.7,23.4,30.14,West,263,2.6,6.5,77,0.00,,,4.23,WUHU216DAVISWMX,2013-02-25 03:29:00,
2013-02-24 22:34:00,30.3,23.4,30.14,West,263,2.6,6.5,75,0.00,,,4.23,WUHU216DAVISWMX,2013-02-25 03:34:00,
2013-02-24 22:39:00,30.6,23.3,30.15,West,263,0.0,6.5,74,0.00,,,4.23,WUHU216DAVISWMX,2013-02-25 03:39:00,
2013-02-24 22:44:00,30.8,23.5,30.15,West,263,0.0,6.5,74,0.00,,,4.23,WUHU216DAVISWMX,2013-02-25 03:44:00,
2013-02-24 22:49:00,30.8,23.5,30.15,West,263,1.3,5.2,74,0.00,,,4.23,WUHU216DAVISWMX,2013-02-25 03:49:00,
2013-02-24 22:54:00,30.7,23.4,30.15,West,263,3.9,5.2,74,0.00,,,4.23,WUHU216DAVISWMX,2013-02-25 03:54:00,
2013-02-24 22:59:00,30.7,23.4,30.15,West,263,2.6,3.9,74,0.00,,,4.23,WUHU216DAVISWMX,2013-02-25 03:59:00,
2013-02-24 23:05:00,30.6,23.3,30.14,West,263,1.3,3.9,74,0.00,,,4.23,WUHU216DAVISWMX,2013-02-25 04:05:00,
2013-02-24 23:10:00,30.5,23.2,30.15,West,263,0.0,3.9,74,0.00,,,4.23,WUHU216DAVISWMX,2013-02-25 04:10:00,
2013-02-24 23:15:00,30.2,23.0,30.15,West,263,2.6,3.9,74,0.00,,,4.23,WUHU216DAVISWMX,2013-02-25 04:15:00,
2013-02-24 23:20:00,29.6,22.1,30.14,West,263,0.0,2.6,73,0.00,,,4.23,WUHU216DAVISWMX,2013-02-25 04:20:00,
2013-02-24 23:25:00,28.8,21.3,30.15,West,263,0.0,2.6,73,0.00,,,4.23,WUHU216DAVISWMX,2013-02-25 04:25:00,
2013-02-24 23:30:00,28.0,20.5,30.14,West,263,0.0,0.0,73,0.00,,,4.23,WUHU216DAVISWMX,2013-02-25 04:30:00,
2013-02-24 23:35:00,27.4,20.2,30.15,West,263,0.0,0.0,74,0.00,,,4.23,WUHU216DAVISWMX,2013-02-25 04:35:00,
2013-02-24 23:40:00,26.9,19.8,30.15,West,263,0.0,0.0,74,0.00,,,4.23,WUHU216DAVISWMX,2013-02-25 04:40:00,
2013-02-24 23:45:00,26.4,19.3,30.15,West,263,0.0,0.0,74,0.00,,,4.23,WUHU216DAVISWMX,2013-02-25 04:45:00,
2013-02-24 23:50:00,26.0,19.2,30.15,West,263,0.0,0.0,75,0.00,,,4.23,WUHU216DAVISWMX,2013-02-25 04:50:00,
2013-02-24 23:55:00,25.7,18.9,30.15,West,263,0.0,0.0,75,0.00,,,4.23,WUHU216DAVISWMX,2013-02-25 04:55:00,